PBO Station Position Time Series. Reference Frame : NAM14
Format Version,1.1.1
4-character ID,P420
Station name,FantasyFd_WA2004
Begin Date, 2004-06-24
End Date, 2023-06-26
Release Date, 2023-06-27
Reference position, 46.5886019776 North Latitude, -122.8663320827 East Longitude, 74.11416 meters elevation,
Date, North (mm), East (mm), Vertical (mm), North Std. Deviation (mm), East Std. Deviation (mm),              Vertical Std. Deviation (mm), Quality,
2004-06-24,0.00, 0.00, 0.00, 2.21, 1.56, 7.17, repro,
2004-06-25,4.00, -0.33, 3.07, 2.37, 1.66, 7.76, repro,
2004-06-26,7.06, -0.93, 1.59, 2.33, 1.68, 7.68, repro,
2004-06-27,3.70, -2.57, 3.07, 2.24, 1.60, 7.24, repro,
2004-06-28,5.56, -2.14, 3.67, 2.40, 1.73, 7.93, repro,
2004-06-29,4.60, -1.31, -2.97, 2.38, 1.71, 7.73, repro,
2004-06-30,3.83, -2.02, -1.13, 2.29, 1.61, 7.34, repro,
2004-07-01,4.14, -2.57, 1.93, 2.23, 1.60, 7.27, repro,
2004-07-02,3.57, -1.77, -0.18, 2.23, 1.61, 7.28, repro,
2004-07-03,1.34, -0.91, -1.88, 2.46, 1.72, 7.74, repro,
2004-07-04,3.67, -1.97, 1.51, 2.35, 1.69, 7.52, repro,
2004-07-05,5.17, -1.82, 3.79, 2.26, 1.62, 7.37, repro,
2004-07-06,1.81, -1.46, 2.08, 2.25, 1.60, 7.29, repro,
2004-07-07,1.03, -0.40, -1.77, 2.32, 1.64, 7.44, repro,
2004-07-08,1.63, -1.26, 1.29, 2.37, 1.66, 7.45, repro,
2004-07-09,-0.07, -0.63, 7.00, 2.29, 1.61, 7.32, repro,
2004-07-10,-0.90, -0.83, 2.06, 2.46, 1.72, 7.69, repro,
2004-07-11,2.83, -0.36, 4.71, 2.43, 1.72, 7.76, repro,
2004-07-12,4.81, -2.49, 1.51, 2.36, 1.67, 7.60, repro,
2004-07-13,6.07, -1.22, 0.91, 2.22, 1.59, 7.23, repro,
2004-07-14,2.78, 0.46, 5.83, 2.43, 1.72, 7.71, repro,
2004-07-15,1.02, -1.09, 10.82, 2.34, 1.67, 7.49, repro,
2004-07-16,4.48, -0.67, 4.82, 2.38, 1.71, 7.75, repro,
2004-07-17,5.58, -1.01, 6.74, 2.25, 1.60, 7.24, repro,
2004-07-18,5.58, -2.25, 1.72, 2.32, 1.68, 7.46, repro,
2004-07-19,-0.56, -4.14, 15.89, 2.31, 1.71, 7.64, repro,
2004-07-20,1.97, -2.38, 4.77, 2.36, 1.72, 7.69, repro,
2004-07-21,2.71, -1.81, 10.12, 2.34, 1.71, 7.47, repro,
2004-07-22,5.98, 0.06, 9.74, 2.30, 1.72, 7.51, repro,
2004-07-23,5.92, -0.64, 7.98, 2.19, 1.60, 7.13, repro,
2004-07-24,4.05, -0.72, 1.94, 2.20, 1.60, 7.16, repro,
2004-07-25,6.15, -1.24, 3.78, 2.22, 1.60, 7.19, repro,
2004-07-26,3.80, -0.46, 4.63, 2.25, 1.67, 7.57, repro,
2004-07-27,5.34, 0.22, 7.95, 2.38, 1.72, 7.65, repro,
2004-07-28,3.87, -0.89, 9.11, 2.29, 1.64, 7.29, repro,
2004-07-29,4.36, -1.14, 8.92, 2.26, 1.64, 7.28, repro,
2004-07-30,4.17, -2.32, 7.17, 2.28, 1.62, 7.29, repro,
2004-07-31,1.92, -1.18, 9.82, 2.31, 1.66, 7.43, repro,
2004-08-01,4.47, -1.23, 6.99, 2.22, 1.60, 7.19, repro,
2004-08-02,7.26, -2.15, 5.60, 2.22, 1.59, 7.17, repro,
2004-08-03,0.66, -0.90, 5.78, 2.41, 1.74, 7.89, repro,
2004-08-04,0.92, -0.17, 12.08, 2.33, 1.64, 7.40, repro,
2004-08-05,0.65, 0.75, 4.32, 2.24, 1.64, 7.36, repro,
2004-08-06,0.52, 1.66, 4.04, 2.30, 1.68, 7.58, repro,
2004-08-07,1.44, -0.95, 10.10, 2.22, 1.60, 7.20, repro,
2004-08-08,2.56, -1.92, 3.42, 2.35, 1.67, 7.41, repro,
2004-08-09,5.84, -1.62, -1.21, 2.25, 1.63, 7.23, repro,
2004-08-10,2.79, 0.96, 9.78, 2.28, 1.64, 7.34, repro,
2004-08-11,4.23, 0.97, 3.22, 2.23, 1.59, 7.17, repro,
2004-08-12,5.89, 1.17, 5.28, 2.34, 1.69, 7.50, repro,
2004-08-13,6.04, -0.80, 8.65, 2.27, 1.63, 7.33, repro,
2004-08-14,5.46, -0.63, 12.72, 2.20, 1.58, 7.10, repro,
2004-08-15,4.27, 0.70, 10.78, 2.22, 1.59, 7.17, repro,
2004-08-16,6.76, 0.84, 4.08, 2.28, 1.65, 7.36, repro,
2004-08-17,4.45, -0.86, 5.47, 2.28, 1.65, 7.41, repro,
2004-08-18,5.35, 0.06, 7.67, 2.29, 1.65, 7.42, repro,
2004-08-19,5.57, -0.89, 3.63, 2.23, 1.58, 7.14, repro,
2004-08-20,4.21, -1.79, -0.41, 2.27, 1.64, 7.29, repro,
2004-08-21,3.60, -2.27, 7.00, 2.25, 1.60, 7.26, repro,
2004-08-22,1.19, 0.51, 18.68, 2.35, 1.64, 7.46, repro,
2004-08-23,1.58, 1.61, 14.39, 2.24, 1.60, 7.24, repro,
2004-08-24,0.96, -0.87, 18.67, 2.24, 1.59, 7.21, repro,
2004-08-25,-0.61, -0.34, 21.95, 2.31, 1.63, 7.38, repro,
2004-08-26,2.03, -0.11, 5.21, 2.23, 1.60, 7.19, repro,
2004-08-27,0.96, 0.80, -1.94, 2.21, 1.57, 7.05, repro,
2004-08-28,1.79, 0.45, 11.19, 2.27, 1.71, 7.56, repro,
2004-08-29,4.49, 0.22, 8.28, 2.30, 1.69, 7.51, repro,
2004-08-30,5.50, -0.79, 10.52, 2.33, 1.70, 7.60, repro,
2004-08-31,4.58, 0.16, 8.29, 2.29, 1.66, 7.42, repro,
2004-09-01,3.05, 0.54, -0.50, 2.26, 1.61, 7.27, repro,
2004-09-02,0.37, -1.05, 8.34, 2.27, 1.63, 7.30, repro,
2004-09-03,2.56, -1.61, 15.50, 2.28, 1.65, 7.38, repro,
2004-09-04,1.46, -1.51, 15.90, 2.30, 1.65, 7.45, repro,
2004-09-05,2.48, -2.92, 11.74, 2.28, 1.65, 7.37, repro,
2004-09-06,0.63, -1.26, 7.05, 2.23, 1.59, 7.18, repro,
2004-09-07,2.52, -1.49, 4.10, 2.22, 1.59, 7.15, repro,
2004-09-08,3.82, -1.62, 9.15, 2.29, 1.65, 7.39, repro,
2004-09-09,1.04, 0.68, 11.86, 2.24, 1.59, 7.22, repro,
2004-09-10,1.07, -0.26, 6.07, 2.27, 1.63, 7.32, repro,
2004-09-11,-2.12, -0.00, 15.01, 2.29, 1.63, 7.41, repro,
2004-09-12,-0.05, 0.45, 9.79, 2.22, 1.58, 7.13, repro,
2004-09-13,1.34, -0.21, 14.67, 2.31, 1.65, 7.43, repro,
2004-09-14,2.16, -1.04, 13.56, 2.27, 1.60, 7.27, repro,
2004-09-15,1.59, -0.80, 8.19, 2.31, 1.65, 7.40, repro,
2004-09-16,1.72, 1.13, 4.76, 2.22, 1.58, 7.10, repro,
2004-09-17,0.81, -0.32, 3.43, 2.28, 1.64, 7.32, repro,
2004-09-18,1.46, 0.03, 9.37, 2.25, 1.63, 7.26, repro,
2004-09-19,1.52, -0.21, 15.53, 2.21, 1.58, 7.11, repro,
2004-09-20,3.09, -1.14, 5.03, 2.25, 1.63, 7.33, repro,
2004-09-21,2.73, -0.14, -0.91, 2.34, 1.67, 7.36, repro,
2004-09-22,1.42, -0.12, -2.41, 2.25, 1.63, 7.26, repro,
2004-09-23,1.93, 0.30, 6.81, 2.36, 1.67, 7.41, repro,
2004-09-24,1.07, 0.52, 6.91, 2.26, 1.63, 7.28, repro,
2004-09-25,4.26, -3.25, 0.15, 2.24, 1.63, 7.29, repro,
2004-09-26,1.53, -0.23, -1.33, 2.21, 1.59, 7.10, repro,
2004-09-27,2.37, -0.01, 3.07, 2.26, 1.62, 7.28, repro,
2004-09-28,1.01, -1.79, 9.26, 2.29, 1.67, 7.29, repro,
2004-09-29,2.98, 0.53, 3.04, 2.21, 1.60, 7.14, repro,
2004-09-30,2.16, 1.01, 4.99, 2.20, 1.57, 7.07, repro,
2004-10-01,2.60, -0.11, 3.97, 2.37, 1.73, 7.58, repro,
2004-10-02,5.00, -1.71, 1.78, 2.25, 1.61, 7.25, repro,
2004-10-03,4.39, -1.85, 2.90, 2.35, 1.71, 7.60, repro,
2004-10-04,2.07, -0.27, -2.45, 2.20, 1.59, 7.12, repro,
2004-10-05,0.34, -0.10, 6.45, 2.20, 1.59, 7.12, repro,
2004-10-06,-0.82, 0.99, 9.53, 2.36, 1.70, 7.64, repro,
2004-10-07,2.15, -0.18, 7.54, 2.44, 1.78, 7.90, repro,
2004-10-08,0.72, -0.35, 4.14, 2.26, 1.64, 7.28, repro,
2004-10-09,1.84, -0.72, 0.28, 2.34, 1.68, 7.50, repro,
2004-10-10,2.33, -1.49, 8.35, 2.27, 1.64, 7.30, repro,
2004-10-11,0.16, 0.39, 4.14, 2.25, 1.62, 7.23, repro,
2004-10-12,1.86, 1.76, -1.11, 2.25, 1.61, 7.22, repro,
2004-10-13,1.79, 1.22, -0.27, 2.25, 1.62, 7.24, repro,
2004-10-14,0.37, -0.48, -1.30, 2.32, 1.66, 7.52, repro,
2004-10-15,2.79, 0.67, 4.57, 2.26, 1.62, 7.24, repro,
2004-10-16,1.48, 0.27, 8.39, 2.21, 1.58, 7.07, repro,
2004-10-17,1.67, 1.06, 15.40, 2.42, 1.71, 7.54, repro,
2004-10-18,0.64, 0.37, 13.05, 2.22, 1.59, 7.11, repro,
2004-10-19,-0.36, 0.63, 10.02, 2.27, 1.62, 7.20, repro,
2004-10-20,-0.57, 0.10, 10.48, 2.31, 1.66, 7.42, repro,
2004-10-21,2.30, 0.37, 7.34, 2.27, 1.60, 7.15, repro,
2004-10-22,1.21, 1.07, 11.75, 2.27, 1.60, 7.17, repro,
2004-10-23,0.67, 0.98, 9.65, 2.23, 1.58, 7.02, repro,
2004-10-24,1.46, 0.72, 10.87, 2.22, 1.58, 7.05, repro,
2004-10-25,1.25, 0.79, 4.80, 2.25, 1.61, 7.33, repro,
2004-10-26,1.71, 0.19, 8.05, 2.35, 1.66, 7.47, repro,
2004-10-27,0.56, 0.78, 6.88, 2.39, 1.66, 7.55, repro,
2004-10-28,0.52, 0.75, 5.12, 2.28, 1.62, 7.31, repro,
2004-10-29,0.80, 1.57, -0.80, 2.26, 1.62, 7.31, repro,
2004-10-30,-1.23, 3.11, 5.17, 2.33, 1.69, 7.55, repro,
2004-10-31,-0.39, 1.18, 2.14, 2.25, 1.62, 7.28, repro,
2004-11-01,1.00, 1.83, -3.21, 2.31, 1.68, 7.49, repro,
2004-11-02,-0.09, 1.66, -2.64, 2.22, 1.59, 7.07, repro,
2004-11-03,0.98, 2.39, -1.83, 2.26, 1.63, 7.23, repro,
2004-11-04,0.45, 1.68, 1.69, 2.27, 1.64, 7.24, repro,
2004-11-05,0.62, 1.62, 6.72, 2.38, 1.75, 7.70, repro,
2004-11-06,1.27, 1.11, 2.90, 2.31, 1.69, 7.41, repro,
2004-11-07,1.11, 1.59, 3.62, 2.28, 1.64, 7.26, repro,
2004-11-08,1.52, 2.03, 4.23, 2.63, 1.93, 8.78, repro,
2004-11-09,0.57, 1.12, 3.78, 2.33, 1.69, 7.52, repro,
2004-11-10,1.33, 2.66, -5.07, 2.45, 1.75, 8.13, repro,
2004-11-11,1.77, 2.41, -5.03, 2.30, 1.68, 7.43, repro,
2004-11-12,1.82, 1.40, -1.42, 2.29, 1.67, 7.37, repro,
2004-11-13,0.99, 0.95, -3.36, 2.25, 1.63, 7.18, repro,
2004-11-14,1.31, 1.15, -4.89, 2.27, 1.64, 7.23, repro,
2004-11-15,-0.69, 0.11, 1.64, 2.25, 1.61, 7.14, repro,
2004-11-16,0.68, 1.65, 2.83, 2.25, 1.64, 7.26, repro,
2004-11-17,0.44, 2.30, -1.10, 2.34, 1.71, 7.62, repro,
2004-11-18,0.70, 2.07, -1.27, 2.22, 1.60, 7.18, repro,
2004-11-19,0.45, 2.00, -2.06, 2.35, 1.73, 7.65, repro,
2004-11-20,1.26, 1.53, -3.61, 2.30, 1.66, 7.43, repro,
2004-11-21,0.10, 1.20, -2.27, 2.50, 1.81, 7.96, repro,
2004-11-22,2.65, 1.29, 2.76, 2.28, 1.67, 7.46, repro,
2004-11-23,1.36, 1.49, 8.34, 2.28, 1.63, 7.22, repro,
2004-11-24,-1.51, 1.14, 12.10, 2.28, 1.64, 7.23, repro,
2004-11-25,0.38, 2.10, 6.03, 2.49, 1.83, 8.02, repro,
2004-11-26,1.31, 0.91, 3.77, 2.25, 1.66, 7.35, repro,
2004-11-27,0.88, 1.63, 6.04, 2.28, 1.71, 7.50, repro,
2004-11-28,0.90, 2.09, -1.59, 2.23, 1.65, 7.32, repro,
2004-11-29,1.62, 0.82, 2.55, 2.16, 1.57, 6.96, repro,
2004-11-30,1.53, 1.46, 0.04, 2.34, 1.74, 7.64, repro,
2004-12-01,1.25, 1.69, -2.68, 2.37, 1.71, 7.55, repro,
2004-12-02,1.05, 1.45, 0.15, 2.27, 1.60, 7.17, repro,
2004-12-03,0.15, 1.32, -2.34, 2.31, 1.65, 7.48, repro,
2004-12-04,2.47, 0.34, 0.67, 2.35, 1.70, 7.55, repro,
2004-12-05,2.01, 0.66, 7.40, 2.28, 1.63, 7.31, repro,
2004-12-06,2.89, 0.69, 10.11, 2.47, 1.81, 7.94, repro,
2004-12-07,0.33, 1.49, 10.68, 2.30, 1.67, 7.39, repro,
2004-12-08,0.83, -0.63, 13.73, 2.22, 1.60, 7.14, repro,
2004-12-09,1.45, 0.48, 8.06, 2.22, 1.62, 7.17, repro,
2004-12-10,-1.14, -0.42, 5.04, 2.29, 1.65, 7.38, repro,
2004-12-11,2.02, 1.78, 2.36, 2.27, 1.62, 7.28, repro,
2004-12-12,1.77, 1.39, -0.85, 2.29, 1.64, 7.26, repro,
2004-12-13,1.28, 1.53, 1.45, 2.32, 1.64, 7.32, repro,
2004-12-14,0.02, 0.31, -0.55, 2.39, 1.72, 7.60, repro,
2004-12-15,1.19, 1.19, -6.30, 2.30, 1.64, 7.18, repro,
2004-12-16,2.31, 1.79, -10.99, 2.24, 1.58, 7.14, repro,
2004-12-17,2.37, 1.44, -9.20, 2.17, 1.58, 6.99, repro,
2004-12-18,0.98, 0.63, -10.27, 2.21, 1.66, 7.22, repro,
2004-12-19,0.37, 2.29, -8.70, 2.17, 1.58, 7.03, repro,
2004-12-20,1.24, 0.95, 0.90, 2.16, 1.56, 6.95, repro,
2004-12-21,2.39, 0.78, -0.71, 2.20, 1.58, 7.09, repro,
2004-12-22,2.34, 1.87, -6.45, 2.19, 1.58, 7.06, repro,
2004-12-23,1.33, 2.11, -7.41, 2.16, 1.56, 6.93, repro,
2004-12-24,1.17, 1.78, -3.07, 2.21, 1.60, 7.13, repro,
2004-12-25,1.47, 0.99, 0.33, 2.20, 1.60, 7.10, repro,
2004-12-26,1.17, 0.31, 1.26, 2.25, 1.58, 7.05, repro,
2004-12-27,1.60, 2.15, 2.91, 2.29, 1.60, 7.10, repro,
2004-12-28,1.93, 1.47, 4.55, 2.31, 1.61, 7.12, repro,
2004-12-29,1.61, 1.65, 2.74, 2.36, 1.65, 7.26, repro,
2004-12-30,0.56, 1.09, 5.80, 2.45, 1.71, 7.60, repro,
2004-12-31,1.26, 1.78, 4.33, 2.50, 1.76, 7.65, repro,
2005-01-01,0.50, 1.23, -1.40, 2.35, 1.61, 7.14, repro,
2005-01-02,1.61, 1.49, -3.23, 2.35, 1.61, 7.12, repro,
2005-01-03,1.36, 2.91, -4.51, 2.35, 1.62, 7.14, repro,
2005-01-04,2.44, 3.09, -1.97, 2.43, 1.69, 7.38, repro,
2005-01-05,3.15, 2.37, -6.36, 2.39, 1.67, 7.38, repro,
2005-01-06,1.92, 1.18, 0.47, 2.38, 1.69, 7.35, repro,
2005-01-07,2.07, 0.17, 1.80, 2.38, 1.68, 7.32, repro,
2005-01-08,2.37, 1.18, -1.26, 2.29, 1.68, 7.26, repro,
2005-01-09,1.31, 2.09, -1.71, 2.28, 1.69, 7.31, repro,
2005-01-10,2.98, 1.39, -5.78, 2.51, 1.87, 8.25, repro,
2005-01-11,1.82, 2.39, 0.16, 2.41, 1.87, 7.98, repro,
2005-01-12,1.12, 2.39, -4.26, 2.41, 1.77, 7.89, repro,
2005-01-13,1.96, 2.19, -5.52, 2.40, 1.75, 7.58, repro,
2005-01-14,2.76, 2.30, -12.79, 2.42, 1.82, 8.01, repro,
2005-01-15,1.42, 1.99, -14.31, 2.42, 1.88, 8.15, repro,
2005-01-16,2.66, 1.89, -12.35, 2.34, 1.68, 7.27, repro,
2005-01-17,-0.33, 3.58, -9.30, 2.23, 1.60, 7.06, repro,
2005-01-18,-0.45, 1.93, -7.96, 2.26, 1.61, 7.16, repro,
2005-01-19,-0.14, 2.35, -5.77, 2.32, 1.63, 7.20, repro,
2005-01-20,0.44, 3.11, -7.97, 2.32, 1.69, 7.34, repro,
2005-01-21,2.77, 0.94, 1.65, 2.42, 1.80, 7.71, repro,
2005-01-22,0.82, 3.63, -6.57, 2.29, 1.71, 7.46, repro,
2005-01-23,2.32, 0.46, -6.66, 2.21, 1.60, 7.05, repro,
2005-01-24,-0.04, 1.17, -5.55, 2.20, 1.60, 7.03, repro,
2005-01-25,1.30, 3.10, -0.12, 2.29, 1.74, 7.65, repro,
2005-01-26,1.87, 2.39, -3.81, 2.32, 1.69, 7.27, repro,
2005-01-27,1.52, 2.34, 3.14, 2.27, 1.67, 7.21, repro,
2005-01-28,0.71, 2.01, 1.14, 2.32, 1.77, 7.59, repro,
2005-01-29,0.69, 2.99, -2.29, 2.20, 1.57, 6.98, repro,
2005-01-30,1.26, 2.01, -2.49, 2.21, 1.61, 7.13, repro,
2005-01-31,1.53, 1.85, 3.40, 2.24, 1.65, 7.23, repro,
2005-02-01,1.58, 2.61, -3.66, 2.22, 1.61, 7.14, repro,
2005-02-02,4.62, 0.94, -1.58, 2.21, 1.58, 7.01, repro,
2005-02-03,0.25, 0.81, -5.18, 2.26, 1.58, 7.05, repro,
2005-02-04,1.25, 1.84, -5.41, 2.21, 1.57, 7.00, repro,
2005-02-05,2.69, 2.32, -2.57, 2.19, 1.55, 6.96, repro,
2005-02-06,2.53, 2.64, -0.88, 2.18, 1.56, 6.94, repro,
2005-02-07,2.28, 2.25, -3.13, 2.20, 1.56, 6.92, repro,
2005-02-08,2.26, 2.81, -4.50, 2.26, 1.59, 7.11, repro,
2005-02-09,0.38, 2.61, 1.85, 2.23, 1.58, 7.07, repro,
2005-02-10,1.10, 3.11, 1.16, 2.21, 1.54, 6.97, repro,
2005-02-11,2.10, -1.02, 1.59, 2.21, 1.57, 7.07, repro,
2005-02-12,0.57, 0.75, 9.53, 2.20, 1.55, 6.96, repro,
2005-02-13,1.17, 2.01, 6.45, 2.21, 1.55, 6.99, repro,
2005-02-14,1.11, 2.32, 3.74, 2.20, 1.55, 6.93, repro,
2005-02-15,1.22, 2.63, -4.39, 2.19, 1.55, 6.96, repro,
2005-02-16,1.40, 2.35, -6.86, 2.20, 1.56, 6.99, repro,
2005-02-17,1.96, 2.43, 0.50, 2.28, 1.57, 7.05, repro,
2005-02-18,1.44, 1.79, 1.05, 2.22, 1.55, 7.04, repro,
2005-02-19,0.65, 1.12, 4.17, 2.20, 1.55, 6.91, repro,
2005-02-20,3.92, 0.84, 1.23, 2.21, 1.55, 6.93, repro,
2005-02-21,0.17, 1.60, 0.35, 2.25, 1.61, 7.15, repro,
2005-02-22,1.15, 1.16, 0.63, 2.30, 1.65, 7.44, repro,
2005-02-23,1.78, 2.46, 1.09, 2.28, 1.57, 7.10, repro,
2005-02-24,5.43, 2.44, 1.52, 2.28, 1.56, 7.08, repro,
2005-02-25,0.37, 1.50, -1.05, 2.27, 1.55, 7.03, repro,
2005-02-26,1.36, 2.01, -2.59, 2.32, 1.59, 7.25, repro,
2005-02-27,3.31, 1.52, -8.10, 2.31, 1.63, 7.26, repro,
2005-02-28,1.18, 1.83, 2.00, 2.29, 1.59, 7.13, repro,
2005-03-01,4.96, 1.74, 4.56, 2.29, 1.57, 7.08, repro,
2005-03-02,-0.03, 2.24, -1.51, 2.38, 1.62, 7.49, repro,
2005-03-03,1.42, 2.61, 0.09, 2.34, 1.58, 7.19, repro,
2005-03-04,4.26, 1.20, -2.50, 2.26, 1.57, 7.07, repro,
2005-03-05,3.78, 2.10, -1.48, 2.27, 1.58, 7.08, repro,
2005-03-06,6.82, 0.21, 0.49, 2.29, 1.58, 7.12, repro,
2005-03-07,7.65, 2.74, 4.47, 2.28, 1.57, 7.05, repro,
2005-03-08,4.39, 2.31, -2.76, 2.28, 1.57, 7.04, repro,
2005-03-09,4.08, 1.42, -11.59, 2.32, 1.61, 7.21, repro,
2005-03-10,1.55, 2.56, -1.29, 2.26, 1.57, 7.05, repro,
2005-03-11,3.85, 2.97, 3.32, 2.28, 1.57, 7.08, repro,
2005-03-12,3.55, -1.28, 5.81, 2.30, 1.58, 7.11, repro,
2005-03-13,4.40, -0.54, -6.55, 2.36, 1.59, 7.23, repro,
2005-03-14,2.88, 4.51, 4.22, 2.28, 1.58, 7.09, repro,
2005-03-15,6.56, -1.36, -5.66, 2.33, 1.61, 7.25, repro,
2005-03-16,-1.42, 0.79, 6.76, 2.33, 1.60, 7.22, repro,
2005-03-17,2.22, 2.67, 6.41, 2.26, 1.56, 6.98, repro,
2005-03-18,0.98, 2.07, 9.97, 2.36, 1.66, 7.40, repro,
2005-03-19,0.80, 2.85, 4.13, 2.26, 1.56, 7.04, repro,
2005-03-20,-1.07, 2.84, 8.01, 2.27, 1.57, 7.07, repro,
2005-03-21,1.16, 2.39, 5.67, 2.27, 1.57, 7.05, repro,
2005-03-22,0.89, 0.96, 2.85, 2.26, 1.55, 7.01, repro,
2005-03-23,1.64, 2.04, 7.81, 2.26, 1.55, 7.00, repro,
2005-03-24,-1.33, 0.20, 9.88, 2.26, 1.56, 7.05, repro,
2005-03-25,-0.33, 2.99, 7.99, 2.28, 1.58, 7.13, repro,
2005-03-26,-0.56, 2.75, 8.16, 2.28, 1.57, 7.05, repro,
2005-03-27,0.30, 2.14, 7.60, 2.28, 1.57, 7.03, repro,
2005-03-28,0.29, 2.20, 13.99, 2.28, 1.57, 7.06, repro,
2005-03-29,0.98, 2.34, 9.42, 2.33, 1.62, 7.25, repro,
2005-03-30,1.13, 1.55, 5.03, 2.28, 1.58, 7.12, repro,
2005-03-31,-0.11, 2.43, -4.19, 2.33, 1.61, 7.25, repro,
2005-04-01,0.11, 2.50, -0.47, 2.40, 1.69, 7.52, repro,
2005-04-02,0.64, 1.77, 2.18, 2.28, 1.58, 7.07, repro,
2005-04-03,-0.21, 1.61, 7.91, 2.34, 1.58, 7.31, repro,
2005-04-04,2.19, 2.22, 5.32, 2.37, 1.59, 7.47, repro,
2005-04-05,0.38, 2.69, 5.03, 2.34, 1.58, 7.30, repro,
2005-04-06,4.23, 3.32, 0.15, 2.33, 1.58, 7.27, repro,
2005-04-07,1.52, 1.56, 5.95, 2.28, 1.56, 7.13, repro,
2005-04-08,-1.73, 0.69, 13.61, 2.32, 1.58, 7.27, repro,
2005-04-09,-1.97, 0.70, 10.20, 2.35, 1.58, 7.30, repro,
2005-04-10,0.95, 3.61, 5.41, 2.34, 1.58, 7.31, repro,
2005-04-11,-0.52, 3.58, 5.88, 2.33, 1.57, 7.23, repro,
2005-04-12,1.85, 2.80, 7.42, 2.34, 1.57, 7.27, repro,
2005-04-13,1.71, 2.36, 2.44, 2.33, 1.58, 7.34, repro,
2005-04-14,0.08, 3.18, -1.08, 2.50, 1.66, 7.55, repro,
2005-04-15,-0.38, 3.51, 1.18, 2.35, 1.59, 7.18, repro,
2005-04-16,3.15, 3.13, 1.71, 2.28, 1.56, 7.02, repro,
2005-04-17,-0.48, 2.95, 2.74, 2.28, 1.56, 7.01, repro,
2005-04-18,2.45, 1.63, -2.95, 2.33, 1.60, 7.24, repro,
2005-04-19,2.05, 2.50, 0.97, 2.36, 1.59, 7.29, repro,
2005-04-20,4.03, 2.03, -5.08, 2.33, 1.59, 7.26, repro,
2005-04-21,1.66, 2.14, -4.73, 2.35, 1.58, 7.30, repro,
2005-04-22,5.50, 4.02, -6.80, 2.29, 1.57, 7.00, repro,
2005-04-23,0.46, 4.34, 3.56, 2.27, 1.56, 7.01, repro,
2005-04-24,3.75, 3.46, 3.33, 2.33, 1.58, 7.27, repro,
2005-04-25,1.60, 2.02, -1.86, 2.34, 1.59, 7.32, repro,
2005-04-26,4.21, 1.67, -3.50, 2.40, 1.66, 7.59, repro,
2005-04-27,3.67, 1.76, -7.45, 2.29, 1.56, 7.00, repro,
2005-04-28,0.80, 1.60, -1.05, 2.34, 1.62, 7.27, repro,
2005-04-29,2.14, 3.46, -2.55, 2.28, 1.56, 7.02, repro,
2005-04-30,2.03, 1.73, -2.74, 2.36, 1.58, 7.24, repro,
2005-05-01,6.19, 3.49, 1.54, 2.33, 1.58, 7.26, repro,
2005-05-02,0.39, 0.77, 0.39, 2.28, 1.56, 7.01, repro,
2005-05-03,3.62, 2.02, -6.29, 2.29, 1.61, 7.19, repro,
2005-05-04,3.77, 3.69, 0.82, 2.31, 1.62, 7.24, repro,
2005-05-05,3.70, 2.70, 6.26, 2.27, 1.56, 7.05, repro,
2005-05-06,5.91, 2.59, 11.66, 2.28, 1.56, 7.02, repro,
2005-05-07,3.97, 2.70, 8.21, 2.28, 1.55, 7.01, repro,
2005-05-08,5.80, 0.77, 1.10, 2.28, 1.57, 7.06, repro,
2005-05-09,-1.64, 0.46, 3.49, 2.34, 1.62, 7.26, repro,
2005-05-10,-0.77, 3.66, 5.99, 2.55, 1.84, 8.24, repro,
2005-05-11,3.23, 1.40, -4.93, 2.45, 1.67, 7.69, repro,
2005-05-12,2.03, 3.57, 3.02, 2.34, 1.66, 7.38, repro,
2005-05-13,5.19, 4.26, 0.76, 2.43, 1.69, 7.54, repro,
2005-05-14,5.88, 3.92, 9.85, 2.35, 1.66, 7.43, repro,
2005-05-15,-2.49, 0.96, 4.09, 2.37, 1.65, 7.54, repro,
2005-05-16,1.38, 0.04, 13.36, 2.33, 1.62, 7.27, repro,
2005-05-17,0.76, 2.83, 12.10, 2.45, 1.64, 7.52, repro,
2005-05-18,0.50, 1.57, 7.67, 2.41, 1.65, 7.40, repro,
2005-05-19,-1.55, 2.52, -1.56, 2.32, 1.63, 7.27, repro,
2005-05-20,2.10, -1.20, 3.96, 2.39, 1.74, 7.75, repro,
2005-05-21,2.26, 0.99, 3.80, 2.31, 1.61, 7.21, repro,
2005-05-22,-0.42, 0.21, -2.24, 2.32, 1.64, 7.33, repro,
2005-05-23,5.54, 2.87, -0.78, 2.30, 1.62, 7.19, repro,
2005-05-24,6.77, 2.32, 0.47, 2.32, 1.62, 7.27, repro,
2005-05-25,6.44, 3.16, 2.14, 2.31, 1.62, 7.28, repro,
2005-05-26,6.00, 3.10, -3.60, 2.31, 1.60, 7.20, repro,
2005-05-27,5.46, 3.34, 1.80, 2.29, 1.61, 7.21, repro,
2005-05-28,4.04, 3.02, 3.03, 2.30, 1.62, 7.19, repro,
2005-05-29,8.03, -0.70, 5.61, 2.49, 1.75, 8.11, repro,
2005-05-30,2.47, 1.92, 5.11, 2.29, 1.62, 7.25, repro,
2005-05-31,4.66, 2.81, 0.91, 2.35, 1.68, 7.53, repro,
2005-06-01,4.77, 2.03, 1.22, 2.31, 1.62, 7.29, repro,
2005-06-02,4.16, 0.78, -1.19, 2.33, 1.62, 7.27, repro,
2005-06-03,5.90, 2.39, 2.33, 2.29, 1.57, 7.06, repro,
2005-06-04,6.25, 2.40, 8.02, 2.31, 1.57, 7.14, repro,
2005-06-05,2.45, 0.88, 12.00, 2.40, 1.67, 7.44, repro,
2005-06-06,1.90, 2.68, 7.88, 2.40, 1.70, 7.69, repro,
2005-06-07,4.90, 0.91, 6.60, 2.35, 1.63, 7.24, repro,
2005-06-08,1.93, 3.62, 10.90, 2.29, 1.57, 7.09, repro,
2005-06-09,4.39, 3.64, 9.73, 2.31, 1.59, 7.23, repro,
2005-06-10,1.39, 0.89, 4.54, 2.42, 1.64, 7.36, repro,
2005-06-11,3.21, 1.44, 6.15, 2.33, 1.62, 7.29, repro,
2005-06-12,7.73, 0.94, 1.78, 2.35, 1.63, 7.30, repro,
2005-06-13,6.92, 1.06, 0.83, 2.36, 1.63, 7.29, repro,
2005-06-14,5.07, 2.34, -1.93, 2.42, 1.64, 7.48, repro,
2005-06-15,3.32, 1.99, 2.25, 2.30, 1.58, 7.12, repro,
2005-06-16,4.42, -0.16, 9.71, 2.38, 1.60, 7.24, repro,
2005-06-17,3.02, 0.41, 10.59, 2.37, 1.59, 7.18, repro,
2005-06-18,2.75, 2.79, 8.48, 2.30, 1.58, 7.10, repro,
2005-06-19,2.20, 2.61, 3.93, 2.29, 1.58, 7.10, repro,
2005-06-20,5.04, 2.28, -3.00, 2.29, 1.58, 7.11, repro,
2005-06-21,5.89, 0.46, 2.43, 2.30, 1.59, 7.18, repro,
2005-06-22,-3.09, 0.45, 1.32, 2.34, 1.58, 7.27, repro,
2005-06-23,5.31, -0.85, 3.32, 2.29, 1.55, 7.05, repro,
2005-06-24,6.15, 2.86, -6.50, 2.28, 1.57, 7.06, repro,
2005-06-25,4.54, 2.67, 4.15, 2.40, 1.67, 7.50, repro,
2005-06-26,2.85, 0.19, -3.49, 2.29, 1.57, 7.09, repro,
2005-06-27,3.37, 1.00, -1.85, 2.29, 1.58, 7.12, repro,
2005-06-28,1.28, -6.41, -1.34, 2.34, 1.63, 7.32, repro,
2005-06-29,2.18, 2.54, 2.38, 2.28, 1.56, 7.04, repro,
2005-06-30,4.02, 2.17, 2.51, 2.24, 1.55, 6.95, repro,
2005-07-01,2.31, 3.15, 2.99, 2.35, 1.61, 7.18, repro,
2005-07-02,3.15, 1.85, 6.41, 2.29, 1.59, 7.11, repro,
2005-07-03,3.03, 3.87, 2.51, 2.27, 1.58, 7.08, repro,
2005-07-04,4.33, 2.07, 3.64, 2.28, 1.56, 7.04, repro,
2005-07-05,3.01, 1.51, 3.46, 2.31, 1.62, 7.12, repro,
2005-07-06,0.78, -2.80, 5.53, 2.33, 1.62, 7.17, repro,
2005-07-07,3.12, 1.73, 2.96, 2.36, 1.62, 7.21, repro,
2005-07-08,-1.09, 1.13, 7.40, 2.35, 1.68, 7.49, repro,
2005-07-09,1.41, 4.30, 11.70, 2.32, 1.62, 7.29, repro,
2005-07-10,6.00, -2.08, 8.23, 2.50, 1.68, 7.47, repro,
2005-07-11,4.62, -0.77, -1.45, 2.25, 1.57, 6.99, repro,
2005-07-12,1.82, 1.28, 7.78, 2.28, 1.59, 7.10, repro,
2005-07-13,3.24, 0.82, 3.05, 2.45, 1.67, 7.40, repro,
2005-07-14,4.05, 2.79, 3.45, 2.37, 1.66, 7.38, repro,
2005-07-15,4.32, 2.27, 10.02, 2.28, 1.57, 7.06, repro,
2005-07-16,4.89, 0.35, 15.40, 2.26, 1.56, 7.01, repro,
2005-07-17,6.29, 4.07, 3.57, 2.42, 1.74, 7.69, repro,
2005-07-18,3.09, 3.56, 7.23, 2.42, 1.67, 7.53, repro,
2005-07-19,4.75, 1.69, 9.42, 2.37, 1.66, 7.37, repro,
2005-07-20,3.23, 2.68, 4.35, 2.34, 1.61, 7.16, repro,
2005-07-21,4.46, 3.70, 10.10, 2.26, 1.56, 7.01, repro,
2005-07-22,4.08, 0.44, 14.57, 2.28, 1.59, 7.12, repro,
2005-07-23,3.71, 3.57, 6.80, 2.46, 1.74, 7.64, repro,
2005-07-24,3.44, 3.52, 8.15, 2.34, 1.62, 7.34, repro,
2005-07-25,4.77, 2.64, 4.86, 2.31, 1.62, 7.30, repro,
2005-07-26,3.10, 2.87, 4.72, 2.38, 1.71, 7.69, repro,
2005-07-27,4.87, 4.45, 10.55, 2.36, 1.66, 7.39, repro,
2005-07-28,5.51, 2.32, 10.19, 2.36, 1.67, 7.42, repro,
2005-07-29,5.41, 2.44, 5.65, 2.32, 1.62, 7.31, repro,
2005-07-30,3.94, 3.34, 7.91, 2.31, 1.62, 7.31, repro,
2005-07-31,4.52, 2.77, 12.06, 2.30, 1.61, 7.30, repro,
2005-08-01,3.68, 1.99, 10.01, 2.30, 1.60, 7.23, repro,
2005-08-02,3.24, 3.03, 8.11, 2.31, 1.59, 7.23, repro,
2005-08-03,4.02, 4.39, 16.72, 2.33, 1.64, 7.24, repro,
2005-08-04,4.52, 3.52, 9.77, 2.28, 1.57, 7.05, repro,
2005-08-05,3.88, 4.78, 8.31, 2.29, 1.58, 7.14, repro,
2005-08-06,2.31, 3.39, 11.82, 2.29, 1.58, 7.11, repro,
2005-08-07,3.29, 3.19, 8.41, 2.35, 1.63, 7.22, repro,
2005-08-08,4.23, 2.68, 11.15, 2.28, 1.57, 7.09, repro,
2005-08-09,3.61, 3.46, 11.63, 2.29, 1.58, 7.13, repro,
2005-08-10,3.18, 4.14, 5.05, 2.33, 1.64, 7.26, repro,
2005-08-11,2.86, 2.95, 7.90, 2.41, 1.65, 7.52, repro,
2005-08-12,3.28, 1.67, 9.96, 2.46, 1.74, 7.73, repro,
2005-08-13,2.90, 2.67, 7.87, 2.28, 1.58, 7.09, repro,
2005-08-14,5.58, 3.51, 12.49, 2.51, 1.73, 7.51, repro,
2005-08-15,4.45, 3.98, 16.37, 2.51, 1.72, 7.47, repro,
2005-08-16,4.92, 2.80, 2.88, 2.41, 1.65, 7.44, repro,
2005-08-17,4.02, 2.51, 14.78, 2.36, 1.64, 7.41, repro,
2005-08-18,3.92, 2.39, 11.33, 2.29, 1.57, 7.12, repro,
2005-08-19,3.19, 3.42, 11.11, 2.29, 1.58, 7.13, repro,
2005-08-20,2.66, 2.60, 11.44, 2.50, 1.66, 7.44, repro,
2005-08-21,4.09, 1.07, 10.09, 2.32, 1.62, 7.17, repro,
2005-08-22,1.40, 2.14, 10.76, 2.34, 1.64, 7.33, repro,
2005-08-23,4.08, 2.82, 14.79, 2.29, 1.58, 7.19, repro,
2005-08-24,5.04, 2.46, 9.71, 2.44, 1.65, 7.51, repro,
2005-08-25,5.57, 2.61, 15.25, 2.41, 1.61, 7.30, repro,
2005-08-26,4.54, 3.25, 10.11, 2.27, 1.56, 7.06, repro,
2005-08-27,3.46, 2.40, 12.65, 2.28, 1.57, 7.10, repro,